Year,Month,Day,Hour,Minute,Value (Times are PST for temperature in C)
2010,03,31,00,00,2.50
2010,03,31,00,01,2.50
2010,03,31,00,02,2.50
2010,03,31,00,03,2.50
2010,03,31,00,04,2.40
2010,03,31,00,05,2.40
2010,03,31,00,06,2.40
2010,03,31,00,07,2.40
2010,03,31,00,08,2.40
2010,03,31,00,09,2.40
2010,03,31,00,10,2.30
2010,03,31,00,11,2.30
2010,03,31,00,12,2.30
2010,03,31,00,13,2.30
2010,03,31,00,14,2.20
2010,03,31,00,15,2.20
2010,03,31,00,16,2.20
2010,03,31,00,17,2.20
2010,03,31,00,18,2.20
2010,03,31,00,19,2.20
2010,03,31,00,20,2.10
2010,03,31,00,21,2.10
2010,03,31,00,22,2.10
2010,03,31,00,23,2.10
2010,03,31,00,24,2.00
2010,03,31,00,25,2.00
2010,03,31,00,26,2.00
2010,03,31,00,27,2.00
2010,03,31,00,28,1.90
2010,03,31,00,29,1.90
2010,03,31,00,30,1.90
2010,03,31,00,31,1.90
2010,03,31,00,32,1.80
2010,03,31,00,33,1.80
2010,03,31,00,34,1.80
2010,03,31,00,35,1.80
2010,03,31,00,36,1.80
2010,03,31,00,37,1.80
2010,03,31,00,38,1.80
2010,03,31,00,39,1.80
2010,03,31,00,40,1.80
2010,03,31,00,41,1.90
2010,03,31,00,42,2.00
2010,03,31,00,43,2.10
2010,03,31,00,44,2.20
2010,03,31,00,45,2.30
2010,03,31,00,46,2.30
2010,03,31,00,47,2.30
2010,03,31,00,48,2.30
2010,03,31,00,49,2.40
2010,03,31,00,50,2.40
2010,03,31,00,51,2.30
2010,03,31,00,52,2.30
2010,03,31,00,53,2.30
2010,03,31,00,54,2.30
2010,03,31,00,55,2.30
2010,03,31,00,56,2.30
2010,03,31,00,57,2.20
2010,03,31,00,58,2.20
2010,03,31,00,59,2.20
2010,03,31,01,00,2.20
2010,03,31,01,01,2.20
2010,03,31,01,02,2.10
2010,03,31,01,03,2.10
2010,03,31,01,04,2.10
2010,03,31,01,05,2.10
2010,03,31,01,06,2.10
2010,03,31,01,07,2.10
2010,03,31,01,08,2.10
2010,03,31,01,09,2.10
2010,03,31,01,10,2.10
2010,03,31,01,11,2.10
2010,03,31,01,12,2.10
2010,03,31,01,13,2.10
2010,03,31,01,14,2.10
2010,03,31,01,15,2.20
2010,03,31,01,16,2.20
2010,03,31,01,17,2.20
2010,03,31,01,18,2.20
2010,03,31,01,19,2.30
2010,03,31,01,20,2.30
2010,03,31,01,21,2.40
2010,03,31,01,22,2.40
2010,03,31,01,23,2.40
2010,03,31,01,24,2.40
2010,03,31,01,25,2.40
2010,03,31,01,26,2.40
2010,03,31,01,27,2.40
2010,03,31,01,28,2.40
2010,03,31,01,29,2.40
2010,03,31,01,30,2.40
2010,03,31,01,31,2.40
2010,03,31,01,32,2.50
2010,03,31,01,33,2.50
2010,03,31,01,34,2.50
2010,03,31,01,35,2.50
2010,03,31,01,36,2.50
2010,03,31,01,37,2.50
2010,03,31,01,38,2.50
2010,03,31,01,39,2.60
2010,03,31,01,40,2.60
2010,03,31,01,41,2.60
2010,03,31,01,42,2.60
2010,03,31,01,43,2.50
2010,03,31,01,44,2.50
2010,03,31,01,45,2.50
2010,03,31,01,46,2.40
2010,03,31,01,47,2.40
2010,03,31,01,48,2.40
2010,03,31,01,49,2.40
2010,03,31,01,50,2.40
2010,03,31,01,51,2.30
2010,03,31,01,52,2.30
2010,03,31,01,53,2.30
2010,03,31,01,54,2.30
2010,03,31,01,55,2.20
2010,03,31,01,56,2.20
2010,03,31,01,57,2.10
2010,03,31,01,58,2.00
2010,03,31,01,59,2.00
2010,03,31,02,00,1.90
2010,03,31,02,01,1.90
2010,03,31,02,02,1.90
2010,03,31,02,03,1.90
2010,03,31,02,04,1.80
2010,03,31,02,05,1.80
2010,03,31,02,06,1.80
2010,03,31,02,07,1.70
2010,03,31,02,08,1.60
2010,03,31,02,09,1.60
2010,03,31,02,10,1.60
2010,03,31,02,11,1.50
2010,03,31,02,12,1.50
2010,03,31,02,13,1.40
2010,03,31,02,14,1.40
2010,03,31,02,15,1.40
2010,03,31,02,16,1.40
2010,03,31,02,17,1.40
2010,03,31,02,18,1.40
2010,03,31,02,19,1.50
2010,03,31,02,20,1.50
2010,03,31,02,21,1.50
2010,03,31,02,22,1.50
2010,03,31,02,23,1.40
2010,03,31,02,24,1.40
2010,03,31,02,25,1.30
2010,03,31,02,26,1.30
2010,03,31,02,27,1.30
2010,03,31,02,28,1.30
2010,03,31,02,29,1.30
2010,03,31,02,30,1.30
2010,03,31,02,31,1.30
2010,03,31,02,32,1.30
2010,03,31,02,33,1.30
2010,03,31,02,34,1.30
2010,03,31,02,35,1.20
2010,03,31,02,36,1.20
2010,03,31,02,37,1.20
2010,03,31,02,38,1.20
2010,03,31,02,39,1.20
2010,03,31,02,40,1.20
2010,03,31,02,41,1.10
2010,03,31,02,42,1.10
2010,03,31,02,43,1.10
2010,03,31,02,44,1.10
2010,03,31,02,45,1.10
2010,03,31,02,46,1.00
2010,03,31,02,47,1.00
2010,03,31,02,48,1.00
2010,03,31,02,49,0.90
2010,03,31,02,50,1.00
2010,03,31,02,51,1.00
2010,03,31,02,52,1.00
2010,03,31,02,53,1.00
2010,03,31,02,54,1.00
2010,03,31,02,55,1.00
2010,03,31,02,56,1.00
2010,03,31,02,57,1.00
2010,03,31,02,58,1.00
2010,03,31,02,59,1.00
2010,03,31,03,00,1.10
2010,03,31,03,01,1.10
2010,03,31,03,02,1.20
2010,03,31,03,03,1.20
2010,03,31,03,04,1.30
2010,03,31,03,05,1.30
2010,03,31,03,06,1.30
2010,03,31,03,07,1.30
2010,03,31,03,08,1.30
2010,03,31,03,09,1.20
2010,03,31,03,10,1.20
2010,03,31,03,11,1.10
2010,03,31,03,12,1.00
2010,03,31,03,13,0.90
2010,03,31,03,14,0.80
2010,03,31,03,15,0.80
2010,03,31,03,16,0.70
2010,03,31,03,17,0.70
2010,03,31,03,18,0.70
2010,03,31,03,19,0.60
2010,03,31,03,20,0.60
2010,03,31,03,21,0.60
2010,03,31,03,22,0.60
2010,03,31,03,23,0.60
2010,03,31,03,24,0.60
2010,03,31,03,25,0.60
2010,03,31,03,26,0.60
2010,03,31,03,27,0.60
2010,03,31,03,28,0.60
2010,03,31,03,29,0.60
2010,03,31,03,30,0.60
2010,03,31,03,31,0.50
2010,03,31,03,32,0.50
2010,03,31,03,33,0.50
2010,03,31,03,34,0.50
2010,03,31,03,35,0.50
2010,03,31,03,36,0.50
2010,03,31,03,37,0.50
2010,03,31,03,38,0.50
2010,03,31,03,39,0.50
2010,03,31,03,40,0.50
2010,03,31,03,41,0.50
2010,03,31,03,42,0.50
2010,03,31,03,43,0.50
2010,03,31,03,44,0.50
2010,03,31,03,45,0.50
2010,03,31,03,46,0.50
2010,03,31,03,47,0.60
2010,03,31,03,48,0.60
2010,03,31,03,49,0.60
2010,03,31,03,50,0.60
2010,03,31,03,51,0.60
2010,03,31,03,52,0.60
2010,03,31,03,53,0.70
2010,03,31,03,54,0.70
2010,03,31,03,55,0.70
2010,03,31,03,56,0.70
2010,03,31,03,57,0.70
2010,03,31,03,58,0.70
2010,03,31,03,59,0.70
2010,03,31,04,00,0.70
2010,03,31,04,01,0.70
2010,03,31,04,02,0.80
2010,03,31,04,03,0.80
2010,03,31,04,04,0.90
2010,03,31,04,05,0.90
2010,03,31,04,06,1.00
2010,03,31,04,07,1.00
2010,03,31,04,08,1.00
2010,03,31,04,09,1.10
2010,03,31,04,10,1.10
2010,03,31,04,11,1.10
2010,03,31,04,12,1.20
2010,03,31,04,13,1.20
2010,03,31,04,14,1.30
2010,03,31,04,15,1.30
2010,03,31,04,16,1.30
2010,03,31,04,17,1.30
2010,03,31,04,18,1.40
2010,03,31,04,19,1.40
2010,03,31,04,20,1.40
2010,03,31,04,21,1.50
2010,03,31,04,22,1.40
2010,03,31,04,23,1.40
2010,03,31,04,24,1.40
2010,03,31,04,25,1.50
2010,03,31,04,26,1.50
2010,03,31,04,27,1.50
2010,03,31,04,28,1.50
2010,03,31,04,29,1.50
2010,03,31,04,30,1.50
2010,03,31,04,31,1.50
2010,03,31,04,32,1.50
2010,03,31,04,33,1.50
2010,03,31,04,34,1.50
2010,03,31,04,35,1.50
2010,03,31,04,36,1.50
2010,03,31,04,37,1.50
2010,03,31,04,38,1.50
2010,03,31,04,39,1.60
2010,03,31,04,40,1.60
2010,03,31,04,41,1.60
2010,03,31,04,42,1.60
2010,03,31,04,43,1.60
2010,03,31,04,44,1.60
2010,03,31,04,45,1.70
2010,03,31,04,46,1.70
2010,03,31,04,47,1.70
2010,03,31,04,48,1.70
2010,03,31,04,49,1.70
2010,03,31,04,50,1.70
2010,03,31,04,51,1.70
2010,03,31,04,52,1.70
2010,03,31,04,53,1.70
2010,03,31,04,54,1.70
2010,03,31,04,55,1.70
2010,03,31,04,56,1.70
2010,03,31,04,57,1.70
2010,03,31,04,58,1.70
2010,03,31,04,59,1.70
2010,03,31,05,00,1.70
2010,03,31,05,01,1.80
2010,03,31,05,02,1.80
2010,03,31,05,03,1.80
2010,03,31,05,04,1.80
2010,03,31,05,05,1.80
2010,03,31,05,06,1.90
2010,03,31,05,07,1.90
2010,03,31,05,08,1.90
2010,03,31,05,09,1.90
2010,03,31,05,10,1.90
2010,03,31,05,11,1.90
2010,03,31,05,12,1.90
2010,03,31,05,13,1.90
2010,03,31,05,14,1.90
2010,03,31,05,15,1.90
2010,03,31,05,16,1.90
2010,03,31,05,17,1.90
2010,03,31,05,18,1.90
2010,03,31,05,19,1.90
2010,03,31,05,20,1.90
2010,03,31,05,21,1.90
2010,03,31,05,22,1.90
2010,03,31,05,23,1.90
2010,03,31,05,24,1.90
2010,03,31,05,25,2.00
2010,03,31,05,26,2.00
2010,03,31,05,27,2.00
2010,03,31,05,28,2.00
2010,03,31,05,29,2.10
2010,03,31,05,30,2.10
2010,03,31,05,31,2.10
2010,03,31,05,32,2.10
2010,03,31,05,33,2.10
2010,03,31,05,34,2.10
2010,03,31,05,35,2.10
2010,03,31,05,36,2.10
2010,03,31,05,37,2.10
2010,03,31,05,38,2.10
2010,03,31,05,39,2.10
2010,03,31,05,40,2.10
2010,03,31,05,41,2.10
2010,03,31,05,42,2.10
2010,03,31,05,43,2.10
2010,03,31,05,44,2.10
2010,03,31,05,45,2.10
2010,03,31,05,46,2.20
2010,03,31,05,47,2.10
2010,03,31,05,48,2.20
2010,03,31,05,49,2.20
2010,03,31,05,50,2.20
2010,03,31,05,51,2.20
2010,03,31,05,52,2.20
2010,03,31,05,53,2.20
2010,03,31,05,54,2.20
2010,03,31,05,55,2.20
2010,03,31,05,56,2.20
2010,03,31,05,57,2.20
2010,03,31,05,58,2.20
2010,03,31,05,59,2.20
2010,03,31,06,00,2.20
2010,03,31,06,01,2.20
2010,03,31,06,02,2.20
2010,03,31,06,03,2.30
2010,03,31,06,04,2.20
2010,03,31,06,05,2.20
2010,03,31,06,06,2.20
2010,03,31,06,07,2.20
2010,03,31,06,08,2.20
2010,03,31,06,09,2.20
2010,03,31,06,10,2.20
2010,03,31,06,11,2.20
2010,03,31,06,12,2.20
2010,03,31,06,13,2.20
2010,03,31,06,14,2.20
2010,03,31,06,15,2.20
2010,03,31,06,16,2.20
2010,03,31,06,17,2.20
2010,03,31,06,18,2.20
2010,03,31,06,19,2.20
2010,03,31,06,20,2.20
2010,03,31,06,21,2.20
2010,03,31,06,22,2.20
2010,03,31,06,23,2.20
2010,03,31,06,24,2.20
2010,03,31,06,25,2.20
2010,03,31,06,26,2.20
2010,03,31,06,27,2.20
2010,03,31,06,28,2.30
2010,03,31,06,29,2.30
2010,03,31,06,30,2.30
2010,03,31,06,31,2.30
2010,03,31,06,32,2.40
2010,03,31,06,33,2.40
2010,03,31,06,34,2.40
2010,03,31,06,35,2.40
2010,03,31,06,36,2.40
2010,03,31,06,37,2.40
2010,03,31,06,38,2.30
2010,03,31,06,39,2.30
2010,03,31,06,40,2.30
2010,03,31,06,41,2.30
2010,03,31,06,42,2.30
2010,03,31,06,43,2.30
2010,03,31,06,44,2.40
2010,03,31,06,45,2.40
2010,03,31,06,46,2.40
2010,03,31,06,47,2.40
2010,03,31,06,48,2.40
2010,03,31,06,49,2.40
2010,03,31,06,50,2.40
2010,03,31,06,51,2.40
2010,03,31,06,52,2.40
2010,03,31,06,53,2.40
2010,03,31,06,54,2.40
2010,03,31,06,55,2.40
2010,03,31,06,56,2.30
2010,03,31,06,57,2.30
2010,03,31,06,58,2.30
2010,03,31,06,59,2.30
2010,03,31,07,00,2.30
2010,03,31,07,01,2.30
2010,03,31,07,02,2.30
2010,03,31,07,03,2.30
2010,03,31,07,04,2.30
2010,03,31,07,05,2.30
2010,03,31,07,06,2.30
2010,03,31,07,07,2.30
2010,03,31,07,08,2.30
2010,03,31,07,09,2.40
2010,03,31,07,10,2.40
2010,03,31,07,11,2.40
2010,03,31,07,12,2.50
2010,03,31,07,13,2.50
2010,03,31,07,14,2.50
2010,03,31,07,15,2.60
2010,03,31,07,16,2.60
2010,03,31,07,17,2.60
2010,03,31,07,18,2.60
2010,03,31,07,19,2.60
2010,03,31,07,20,2.60
2010,03,31,07,21,2.60
2010,03,31,07,22,2.60
2010,03,31,07,23,2.60
2010,03,31,07,24,2.60
2010,03,31,07,25,2.60
2010,03,31,07,26,2.60
2010,03,31,07,27,2.50
2010,03,31,07,28,2.50
2010,03,31,07,29,2.50
2010,03,31,07,30,2.40
2010,03,31,07,31,2.40
2010,03,31,07,32,2.40
2010,03,31,07,33,2.40
2010,03,31,07,34,2.30
2010,03,31,07,35,2.30
2010,03,31,07,36,2.30
2010,03,31,07,37,2.30
2010,03,31,07,38,2.30
2010,03,31,07,39,2.30
2010,03,31,07,40,2.30
2010,03,31,07,41,2.30
2010,03,31,07,42,2.30
2010,03,31,07,43,2.30
2010,03,31,07,44,2.30
2010,03,31,07,45,2.40
2010,03,31,07,46,2.40
2010,03,31,07,47,2.40
2010,03,31,07,48,2.40
2010,03,31,07,49,2.40
2010,03,31,07,50,2.40
2010,03,31,07,51,2.50
2010,03,31,07,52,2.60
2010,03,31,07,53,2.60
2010,03,31,07,54,2.70
2010,03,31,07,55,2.70
2010,03,31,07,56,2.80
2010,03,31,07,57,2.80
2010,03,31,07,58,2.80
2010,03,31,07,59,2.90
2010,03,31,08,00,2.90
2010,03,31,08,01,3.00
2010,03,31,08,02,3.00
2010,03,31,08,03,3.10
2010,03,31,08,04,3.20
2010,03,31,08,05,3.20
2010,03,31,08,06,3.30
2010,03,31,08,07,3.30
2010,03,31,08,08,3.40
2010,03,31,08,09,3.40
2010,03,31,08,10,3.40
2010,03,31,08,11,3.40
2010,03,31,08,12,3.40
2010,03,31,08,13,3.50
2010,03,31,08,14,3.50
2010,03,31,08,15,3.50
2010,03,31,08,16,3.50
2010,03,31,08,17,3.50
2010,03,31,08,18,3.50
2010,03,31,08,19,3.50
2010,03,31,08,20,3.50
2010,03,31,08,21,3.60
2010,03,31,08,22,3.60
2010,03,31,08,23,3.50
2010,03,31,08,24,3.50
2010,03,31,08,25,3.50
2010,03,31,08,26,3.50
2010,03,31,08,27,3.50
2010,03,31,08,28,3.50
2010,03,31,08,29,3.50
2010,03,31,08,30,3.50
2010,03,31,08,31,3.50
2010,03,31,08,32,3.50
2010,03,31,08,33,3.50
2010,03,31,08,34,3.50
2010,03,31,08,35,3.50
2010,03,31,08,36,3.50
2010,03,31,08,37,3.50
2010,03,31,08,38,3.60
2010,03,31,08,39,3.60
2010,03,31,08,40,3.60
2010,03,31,08,41,3.60
2010,03,31,08,42,3.60
2010,03,31,08,43,3.60
2010,03,31,08,44,3.70
2010,03,31,08,45,3.80
2010,03,31,08,46,3.80
2010,03,31,08,47,3.80
2010,03,31,08,48,3.90
2010,03,31,08,49,3.90
2010,03,31,08,50,4.00
2010,03,31,08,51,4.00
2010,03,31,08,52,4.00
2010,03,31,08,53,4.00
2010,03,31,08,54,4.00
2010,03,31,08,55,4.00
2010,03,31,08,56,4.10
2010,03,31,08,57,4.10
2010,03,31,08,58,4.10
2010,03,31,08,59,4.10
2010,03,31,09,00,4.10
2010,03,31,09,01,4.20
2010,03,31,09,02,4.20
2010,03,31,09,03,4.20
2010,03,31,09,04,4.30
2010,03,31,09,05,4.30
2010,03,31,09,06,4.40
2010,03,31,09,07,4.40
2010,03,31,09,08,4.50
2010,03,31,09,09,4.60
2010,03,31,09,10,4.70
2010,03,31,09,11,4.70
2010,03,31,09,12,4.80
2010,03,31,09,13,4.90
2010,03,31,09,14,4.90
2010,03,31,09,15,5.00
2010,03,31,09,16,5.20
2010,03,31,09,17,5.40
2010,03,31,09,18,5.50
2010,03,31,09,19,5.60
2010,03,31,09,20,5.60
2010,03,31,09,21,5.60
2010,03,31,09,22,5.60
2010,03,31,09,23,5.60
2010,03,31,09,24,5.70
2010,03,31,09,25,5.70
2010,03,31,09,26,5.60
2010,03,31,09,27,5.70
2010,03,31,09,28,5.70
2010,03,31,09,29,5.70
2010,03,31,09,30,5.70
2010,03,31,09,31,5.70
2010,03,31,09,32,5.70
2010,03,31,09,33,5.70
2010,03,31,09,34,5.80
2010,03,31,09,35,5.80
2010,03,31,09,36,5.90
2010,03,31,09,37,5.90
2010,03,31,09,38,5.90
2010,03,31,09,39,5.90
2010,03,31,09,40,5.90
2010,03,31,09,41,5.90
2010,03,31,09,42,5.80
2010,03,31,09,43,5.80
2010,03,31,09,44,5.80
2010,03,31,09,45,5.80
2010,03,31,09,46,5.80
2010,03,31,09,47,5.80
2010,03,31,09,48,5.80
2010,03,31,09,49,5.90
2010,03,31,09,50,6.00
2010,03,31,09,51,6.00
2010,03,31,09,52,6.10
2010,03,31,09,53,6.10
2010,03,31,09,54,6.20
2010,03,31,09,55,6.30
2010,03,31,09,56,6.40
2010,03,31,09,57,6.50
2010,03,31,09,58,6.60
2010,03,31,09,59,6.60
2010,03,31,10,00,6.70
2010,03,31,10,01,6.70
2010,03,31,10,02,6.70
2010,03,31,10,03,6.80
2010,03,31,10,04,6.70
2010,03,31,10,05,6.60
2010,03,31,10,06,6.60
2010,03,31,10,07,6.50
2010,03,31,10,08,6.50
2010,03,31,10,09,6.50
2010,03,31,10,10,6.60
2010,03,31,10,11,6.60
2010,03,31,10,12,6.70
2010,03,31,10,13,6.70
2010,03,31,10,14,6.80
2010,03,31,10,15,6.90
2010,03,31,10,16,6.90
2010,03,31,10,17,6.90
2010,03,31,10,18,6.80
2010,03,31,10,19,6.80
2010,03,31,10,20,6.80
2010,03,31,10,21,6.80
2010,03,31,10,22,6.80
2010,03,31,10,23,6.90
2010,03,31,10,24,6.90
2010,03,31,10,25,7.00
2010,03,31,10,26,7.00
2010,03,31,10,27,6.90
2010,03,31,10,28,6.80
2010,03,31,10,29,6.70
2010,03,31,10,30,6.60
2010,03,31,10,31,6.60
2010,03,31,10,32,6.60
2010,03,31,10,33,6.70
2010,03,31,10,34,6.60
2010,03,31,10,35,6.60
2010,03,31,10,36,6.60
2010,03,31,10,37,6.50
2010,03,31,10,38,6.40
2010,03,31,10,39,6.30
2010,03,31,10,40,6.30
2010,03,31,10,41,6.30
2010,03,31,10,42,6.30
2010,03,31,10,43,6.30
2010,03,31,10,44,6.30
2010,03,31,10,45,6.30
2010,03,31,10,46,6.30
2010,03,31,10,47,6.20
2010,03,31,10,48,6.20
2010,03,31,10,49,6.20
2010,03,31,10,50,6.20
2010,03,31,10,51,6.10
2010,03,31,10,52,6.10
2010,03,31,10,53,6.10
2010,03,31,10,54,6.00
2010,03,31,10,55,6.00
2010,03,31,10,56,5.90
2010,03,31,10,57,5.90
2010,03,31,10,58,5.90
2010,03,31,10,59,5.90
2010,03,31,11,00,5.90
2010,03,31,11,01,5.90
2010,03,31,11,02,5.90
2010,03,31,11,03,5.90
2010,03,31,11,04,5.90
2010,03,31,11,05,6.00
2010,03,31,11,06,6.00
2010,03,31,11,07,6.00
2010,03,31,11,08,6.10
2010,03,31,11,09,6.10
2010,03,31,11,10,6.20
2010,03,31,11,11,6.20
2010,03,31,11,12,6.30
2010,03,31,11,13,6.30
2010,03,31,11,14,6.30
2010,03,31,11,15,6.30
2010,03,31,11,16,6.30
2010,03,31,11,17,6.30
2010,03,31,11,18,6.30
2010,03,31,11,19,6.20
2010,03,31,11,20,6.20
2010,03,31,11,21,6.10
2010,03,31,11,22,6.10
2010,03,31,11,23,6.10
2010,03,31,11,24,6.10
2010,03,31,11,25,6.10
2010,03,31,11,26,6.10
2010,03,31,11,27,6.10
2010,03,31,11,28,6.10
2010,03,31,11,29,6.10
2010,03,31,11,30,6.10
2010,03,31,11,31,6.20
2010,03,31,11,32,6.20
2010,03,31,11,33,6.20
2010,03,31,11,34,6.30
2010,03,31,11,35,6.30
2010,03,31,11,36,6.30
2010,03,31,11,37,6.40
2010,03,31,11,38,6.40
2010,03,31,11,39,6.40
2010,03,31,11,40,6.40
2010,03,31,11,41,6.40
2010,03,31,11,42,6.40
2010,03,31,11,43,6.40
2010,03,31,11,44,6.40
2010,03,31,11,45,6.40
2010,03,31,11,46,6.40
2010,03,31,11,47,6.50
2010,03,31,11,48,6.50
2010,03,31,11,49,6.60
2010,03,31,11,50,6.70
2010,03,31,11,51,6.80
2010,03,31,11,52,6.90
2010,03,31,11,53,7.10
2010,03,31,11,54,7.20
2010,03,31,11,55,7.10
2010,03,31,11,56,7.10
2010,03,31,11,57,7.10
2010,03,31,11,58,7.10
2010,03,31,11,59,7.10
2010,03,31,12,00,7.20
2010,03,31,12,01,7.20
2010,03,31,12,02,7.20
2010,03,31,12,03,7.30
2010,03,31,12,04,7.30
2010,03,31,12,05,7.20
2010,03,31,12,06,7.20
2010,03,31,12,07,7.20
2010,03,31,12,08,7.20
2010,03,31,12,09,7.10
2010,03,31,12,10,7.00
2010,03,31,12,11,6.90
2010,03,31,12,12,6.90
2010,03,31,12,13,6.90
2010,03,31,12,14,6.90
2010,03,31,12,15,6.90
2010,03,31,12,16,6.90
2010,03,31,12,17,7.00
2010,03,31,12,18,7.00
2010,03,31,12,19,7.00
2010,03,31,12,20,7.00
2010,03,31,12,21,7.00
2010,03,31,12,22,7.00
2010,03,31,12,23,7.00
2010,03,31,12,24,7.10
2010,03,31,12,25,7.20
2010,03,31,12,26,7.20
2010,03,31,12,27,7.30
2010,03,31,12,28,7.40
2010,03,31,12,29,7.40
2010,03,31,12,30,7.50
2010,03,31,12,31,7.50
2010,03,31,12,32,7.60
2010,03,31,12,33,7.70
2010,03,31,12,34,7.70
2010,03,31,12,35,7.80
2010,03,31,12,36,7.80
2010,03,31,12,37,7.80
2010,03,31,12,38,7.80
2010,03,31,12,39,7.80
2010,03,31,12,40,7.80
2010,03,31,12,41,7.80
2010,03,31,12,42,7.90
2010,03,31,12,43,7.90
2010,03,31,12,44,7.90
2010,03,31,12,45,7.90
2010,03,31,12,46,7.80
2010,03,31,12,47,7.80
2010,03,31,12,48,7.70
2010,03,31,12,49,7.70
2010,03,31,12,50,7.70
2010,03,31,12,51,7.70
2010,03,31,12,52,7.70
2010,03,31,12,53,7.70
2010,03,31,12,54,7.80
2010,03,31,12,55,7.80
2010,03,31,12,56,7.80
2010,03,31,12,57,7.80
2010,03,31,12,58,7.80
2010,03,31,12,59,7.80
2010,03,31,13,00,7.90
2010,03,31,13,01,8.00
2010,03,31,13,02,8.10
2010,03,31,13,03,8.00
2010,03,31,13,04,8.00
2010,03,31,13,05,8.00
2010,03,31,13,06,8.00
2010,03,31,13,07,7.90
2010,03,31,13,08,7.90
2010,03,31,13,09,7.80
2010,03,31,13,10,7.60
2010,03,31,13,11,7.50
2010,03,31,13,12,7.40
2010,03,31,13,13,7.40
2010,03,31,13,14,7.40
2010,03,31,13,15,7.40
2010,03,31,13,16,7.40
2010,03,31,13,17,7.50
2010,03,31,13,18,7.50
2010,03,31,13,19,7.60
2010,03,31,13,20,7.70
2010,03,31,13,21,7.70
2010,03,31,13,22,7.70
2010,03,31,13,23,7.70
2010,03,31,13,24,7.60
2010,03,31,13,25,7.60
2010,03,31,13,26,7.50
2010,03,31,13,27,7.50
2010,03,31,13,28,7.50
2010,03,31,13,29,7.50
2010,03,31,13,30,7.70
2010,03,31,13,31,7.80
2010,03,31,13,32,7.90
2010,03,31,13,33,7.80
2010,03,31,13,34,7.80
2010,03,31,13,35,7.70
2010,03,31,13,36,7.70
2010,03,31,13,37,7.60
2010,03,31,13,38,7.60
2010,03,31,13,39,7.70
2010,03,31,13,40,7.80
2010,03,31,13,41,8.00
2010,03,31,13,42,8.10
2010,03,31,13,43,8.00
2010,03,31,13,44,7.90
2010,03,31,13,45,7.90
2010,03,31,13,46,7.90
2010,03,31,13,47,7.90
2010,03,31,13,48,8.00
2010,03,31,13,49,8.00
2010,03,31,13,50,8.00
2010,03,31,13,51,8.00
2010,03,31,13,52,8.00
2010,03,31,13,53,8.00
2010,03,31,13,54,8.10
2010,03,31,13,55,8.10
2010,03,31,13,56,8.20
2010,03,31,13,57,8.20
2010,03,31,13,58,8.10
2010,03,31,13,59,8.00
2010,03,31,14,00,7.90
2010,03,31,14,01,7.90
2010,03,31,14,02,8.00
2010,03,31,14,03,8.10
2010,03,31,14,04,8.10
2010,03,31,14,05,8.20
2010,03,31,14,06,8.20
2010,03,31,14,07,8.20
2010,03,31,14,08,8.20
2010,03,31,14,09,8.30
2010,03,31,14,10,8.30
2010,03,31,14,11,8.30
2010,03,31,14,12,8.30
2010,03,31,14,13,8.30
2010,03,31,14,14,8.40
2010,03,31,14,15,8.50
2010,03,31,14,16,8.60
2010,03,31,14,17,8.60
2010,03,31,14,18,8.50
2010,03,31,14,19,8.40
2010,03,31,14,20,8.40
2010,03,31,14,21,8.50
2010,03,31,14,22,8.60
2010,03,31,14,23,8.50
2010,03,31,14,24,8.50
2010,03,31,14,25,8.40
2010,03,31,14,26,8.40
2010,03,31,14,27,8.40
2010,03,31,14,28,8.30
2010,03,31,14,29,8.30
2010,03,31,14,30,8.30
2010,03,31,14,31,8.40
2010,03,31,14,32,8.40
2010,03,31,14,33,8.40
2010,03,31,14,34,8.50
2010,03,31,14,35,8.50
2010,03,31,14,36,8.50
2010,03,31,14,37,8.50
2010,03,31,14,38,8.50
2010,03,31,14,39,8.40
2010,03,31,14,40,8.40
2010,03,31,14,41,8.40
2010,03,31,14,42,8.40
2010,03,31,14,43,8.50
2010,03,31,14,44,8.60
2010,03,31,14,45,8.70
2010,03,31,14,46,8.70
2010,03,31,14,47,8.70
2010,03,31,14,48,8.70
2010,03,31,14,49,8.70
2010,03,31,14,50,8.70
2010,03,31,14,51,8.80
2010,03,31,14,52,8.80
2010,03,31,14,53,8.90
2010,03,31,14,54,8.90
2010,03,31,14,55,8.90
2010,03,31,14,56,8.90
2010,03,31,14,57,8.80
2010,03,31,14,58,8.80
2010,03,31,14,59,8.90
2010,03,31,15,00,9.00
2010,03,31,15,01,9.00
2010,03,31,15,02,9.10
2010,03,31,15,03,9.10
2010,03,31,15,04,9.10
2010,03,31,15,05,9.10
2010,03,31,15,06,9.10
2010,03,31,15,07,9.00
2010,03,31,15,08,8.90
2010,03,31,15,09,8.80
2010,03,31,15,10,8.80
2010,03,31,15,11,8.80
2010,03,31,15,12,8.80
2010,03,31,15,13,8.80
2010,03,31,15,14,8.80
2010,03,31,15,15,8.90
2010,03,31,15,16,8.90
2010,03,31,15,17,8.90
2010,03,31,15,18,8.90
2010,03,31,15,19,8.90
2010,03,31,15,20,8.90
2010,03,31,15,21,8.90
2010,03,31,15,22,9.00
2010,03,31,15,23,9.00
2010,03,31,15,24,9.00
2010,03,31,15,25,9.10
2010,03,31,15,26,9.20
2010,03,31,15,27,9.20
2010,03,31,15,28,9.20
2010,03,31,15,29,9.20
2010,03,31,15,30,9.10
2010,03,31,15,31,9.20
2010,03,31,15,32,9.20
2010,03,31,15,33,9.30
2010,03,31,15,34,9.30
2010,03,31,15,35,9.30
2010,03,31,15,36,9.40
2010,03,31,15,37,9.50
2010,03,31,15,38,9.60
2010,03,31,15,39,9.60
2010,03,31,15,40,9.60
2010,03,31,15,41,9.50
2010,03,31,15,42,9.40
2010,03,31,15,43,9.40
2010,03,31,15,44,9.40
2010,03,31,15,45,9.40
2010,03,31,15,46,9.40
2010,03,31,15,47,9.30
2010,03,31,15,48,9.30
2010,03,31,15,49,9.20
2010,03,31,15,50,9.10
2010,03,31,15,51,9.00
2010,03,31,15,52,8.90
2010,03,31,15,53,8.80
2010,03,31,15,54,8.70
2010,03,31,15,55,8.70
2010,03,31,15,56,8.60
2010,03,31,15,57,8.70
2010,03,31,15,58,8.70
2010,03,31,15,59,8.70
2010,03,31,16,00,8.80
2010,03,31,16,01,8.80
2010,03,31,16,02,8.80
2010,03,31,16,03,8.70
2010,03,31,16,04,8.70
2010,03,31,16,05,8.80
2010,03,31,16,06,8.90
2010,03,31,16,07,9.00
2010,03,31,16,08,9.10
2010,03,31,16,09,9.20
2010,03,31,16,10,9.30
2010,03,31,16,11,9.30
2010,03,31,16,12,9.40
2010,03,31,16,13,9.50
2010,03,31,16,14,9.60
2010,03,31,16,15,9.60
2010,03,31,16,16,9.70
2010,03,31,16,17,9.80
2010,03,31,16,18,9.80
2010,03,31,16,19,9.90
2010,03,31,16,20,9.90
2010,03,31,16,21,9.90
2010,03,31,16,22,9.90
2010,03,31,16,23,9.80
2010,03,31,16,24,9.80
2010,03,31,16,25,9.80
2010,03,31,16,26,9.80
2010,03,31,16,27,9.90
2010,03,31,16,28,9.90
2010,03,31,16,29,10.00
2010,03,31,16,30,10.00
2010,03,31,16,31,10.10
2010,03,31,16,32,10.10
2010,03,31,16,33,10.20
2010,03,31,16,34,10.10
2010,03,31,16,35,10.10
2010,03,31,16,36,10.10
2010,03,31,16,37,10.00
2010,03,31,16,38,9.90
2010,03,31,16,39,9.90
2010,03,31,16,40,9.90
2010,03,31,16,41,9.90
2010,03,31,16,42,9.90
2010,03,31,16,43,9.90
2010,03,31,16,44,10.00
2010,03,31,16,45,10.10
2010,03,31,16,46,10.00
2010,03,31,16,47,10.00
2010,03,31,16,48,10.00
2010,03,31,16,49,10.00
2010,03,31,16,50,10.00
2010,03,31,16,51,10.00
2010,03,31,16,52,10.10
2010,03,31,16,53,10.00
2010,03,31,16,54,10.00
2010,03,31,16,55,10.00
2010,03,31,16,56,10.10
2010,03,31,16,57,10.20
2010,03,31,16,58,10.30
2010,03,31,16,59,10.30
2010,03,31,17,00,10.30
2010,03,31,17,01,10.30
2010,03,31,17,02,10.20
2010,03,31,17,03,10.20
2010,03,31,17,04,10.20
2010,03,31,17,05,10.30
2010,03,31,17,06,10.30
2010,03,31,17,07,10.30
2010,03,31,17,08,10.30
2010,03,31,17,09,10.40
2010,03,31,17,10,10.40
2010,03,31,17,11,10.50
2010,03,31,17,12,10.50
2010,03,31,17,13,10.60
2010,03,31,17,14,10.60
2010,03,31,17,15,10.60
2010,03,31,17,16,10.60
2010,03,31,17,17,10.60
2010,03,31,17,18,10.70
2010,03,31,17,19,10.80
2010,03,31,17,20,10.80
2010,03,31,17,21,10.80
2010,03,31,17,22,10.80
2010,03,31,17,23,10.90
2010,03,31,17,24,10.90
2010,03,31,17,25,10.90
2010,03,31,17,26,10.80
2010,03,31,17,27,10.80
2010,03,31,17,28,10.80
2010,03,31,17,29,10.80
2010,03,31,17,30,10.80
2010,03,31,17,31,10.80
2010,03,31,17,32,10.80
2010,03,31,17,33,10.80
2010,03,31,17,34,10.70
2010,03,31,17,35,10.70
2010,03,31,17,36,10.70
2010,03,31,17,37,10.70
2010,03,31,17,38,10.70
2010,03,31,17,39,10.60
2010,03,31,17,40,10.60
2010,03,31,17,41,10.50
2010,03,31,17,42,10.60
2010,03,31,17,43,10.60
2010,03,31,17,44,10.60
2010,03,31,17,45,10.70
2010,03,31,17,46,10.60
2010,03,31,17,47,10.60
2010,03,31,17,48,10.50
2010,03,31,17,49,10.50
2010,03,31,17,50,10.40
2010,03,31,17,51,10.30
2010,03,31,17,52,10.20
2010,03,31,17,53,10.10
2010,03,31,17,54,10.00
2010,03,31,17,55,9.90
2010,03,31,17,56,9.80
2010,03,31,17,57,9.70
2010,03,31,17,58,9.70
2010,03,31,17,59,9.70
2010,03,31,18,00,9.70
2010,03,31,18,01,9.70
2010,03,31,18,02,9.70
2010,03,31,18,03,9.70